Time,TemperatureF,DewpointF,PressureIn,WindDirection,WindDirectionDegrees,WindSpeedMPH,WindSpeedGustMPH,Humidity,HourlyPrecipIn,Conditions,Clouds,dailyrainin,SoftwareType,DateUTC
2013-04-12 00:03:00,42.0,-99.9,-100.00,North,-999,-999.0,-999.0,-999,0.00,,,0.01,,2013-04-12 04:03:00,
2013-04-12 00:13:00,42.0,-99.9,-100.00,North,-999,-999.0,-999.0,-999,0.00,,,0.01,,2013-04-12 04:13:00,
2013-04-12 00:53:00,41.0,-99.9,-100.00,North,-999,-999.0,-999.0,-999,0.00,,,0.01,,2013-04-12 04:53:00,
2013-04-12 01:03:00,41.0,-99.9,-100.00,North,-999,-999.0,-999.0,-999,0.00,,,0.01,,2013-04-12 05:03:00,
2013-04-12 01:12:00,41.0,-99.9,-100.00,North,-999,-999.0,-999.0,-999,0.00,,,0.01,,2013-04-12 05:12:00,
2013-04-12 01:32:00,41.0,-99.9,-100.00,North,-999,-999.0,-999.0,-999,0.00,,,-99.99,,2013-04-12 05:32:00,
2013-04-12 01:42:00,41.0,-99.9,-100.00,North,-999,-999.0,-999.0,-999,0.00,,,-99.99,,2013-04-12 05:42:00,
2013-04-12 01:52:00,41.0,-99.9,-100.00,North,-999,-999.0,-999.0,-999,0.00,,,-99.99,,2013-04-12 05:52:00,
2013-04-12 02:02:00,41.0,-99.9,-100.00,North,-999,-999.0,-999.0,-999,0.00,,,-99.99,,2013-04-12 06:02:00,
2013-04-12 02:12:00,41.0,-99.9,-100.00,North,-999,-999.0,-999.0,-999,0.00,,,-99.99,,2013-04-12 06:12:00,
2013-04-12 02:32:00,40.0,-99.9,-100.00,North,-999,-999.0,-999.0,-999,0.00,,,0.01,,2013-04-12 06:32:00,
2013-04-12 02:42:00,40.0,-99.9,-100.00,North,-999,-999.0,-999.0,-999,0.00,,,0.01,,2013-04-12 06:42:00,
2013-04-12 02:53:00,40.0,-99.9,-100.00,North,-999,-999.0,-999.0,-999,0.00,,,0.01,,2013-04-12 06:53:00,
2013-04-12 03:02:00,40.0,-99.9,-100.00,North,-999,-999.0,-999.0,-999,0.00,,,0.01,,2013-04-12 07:02:00,
2013-04-12 03:12:00,40.0,-99.9,-100.00,North,-999,-999.0,-999.0,-999,0.00,,,0.01,,2013-04-12 07:12:00,
2013-04-12 03:32:00,40.0,-99.9,-100.00,North,-999,-999.0,-999.0,-999,0.00,,,0.01,,2013-04-12 07:32:00,
2013-04-12 03:42:00,40.0,-99.9,-100.00,North,-999,-999.0,-999.0,-999,0.00,,,0.01,,2013-04-12 07:42:00,
2013-04-12 03:52:00,40.0,-99.9,-100.00,North,-999,-999.0,-999.0,-999,0.00,,,0.01,,2013-04-12 07:52:00,
2013-04-12 04:03:00,40.0,-99.9,-100.00,North,-999,-999.0,-999.0,-999,0.00,,,0.01,,2013-04-12 08:03:00,
2013-04-12 04:12:00,40.0,-99.9,-100.00,North,-999,-999.0,-999.0,-999,0.00,,,0.01,,2013-04-12 08:12:00,
2013-04-12 04:43:00,40.0,-99.9,-100.00,North,-999,-999.0,-999.0,-999,0.00,,,0.01,,2013-04-12 08:43:00,
2013-04-12 04:53:00,40.0,-99.9,-100.00,North,-999,-999.0,-999.0,-999,0.00,,,0.01,,2013-04-12 08:53:00,
2013-04-12 05:03:00,40.0,-99.9,-100.00,North,-999,-999.0,-999.0,-999,0.00,,,0.01,,2013-04-12 09:03:00,
2013-04-12 05:12:00,40.0,-99.9,-100.00,North,-999,-999.0,-999.0,-999,0.00,,,0.01,,2013-04-12 09:12:00,
2013-04-12 05:44:00,39.0,-99.9,-100.00,North,-999,-999.0,-999.0,-999,0.00,,,0.01,,2013-04-12 09:44:00,
2013-04-12 05:53:00,39.0,-99.9,-100.00,North,-999,-999.0,-999.0,-999,0.00,,,0.01,,2013-04-12 09:53:00,
2013-04-12 06:03:00,39.0,-99.9,-100.00,North,-999,-999.0,-999.0,-999,0.00,,,0.01,,2013-04-12 10:03:00,
2013-04-12 06:13:00,39.0,-99.9,-100.00,North,-999,-999.0,-999.0,-999,0.00,,,0.01,,2013-04-12 10:13:00,
2013-04-12 06:43:00,39.0,-99.9,-100.00,North,-999,-999.0,-999.0,-999,0.02,,,0.03,,2013-04-12 10:43:00,
2013-04-12 06:53:00,39.0,-99.9,-100.00,North,-999,-999.0,-999.0,-999,0.02,,,0.03,,2013-04-12 10:53:00,
2013-04-12 07:03:00,39.0,-99.9,-100.00,North,-999,-999.0,-999.0,-999,0.02,,,0.03,,2013-04-12 11:03:00,
2013-04-12 07:13:00,39.0,-99.9,-100.00,North,-999,-999.0,-999.0,-999,0.02,,,0.03,,2013-04-12 11:13:00,
2013-04-12 07:33:00,38.0,-99.9,-100.00,North,-999,-999.0,-999.0,-999,0.02,,,0.05,,2013-04-12 11:33:00,
2013-04-12 07:43:00,38.0,-99.9,-100.00,North,-999,-999.0,-999.0,-999,0.02,,,0.05,,2013-04-12 11:43:00,
2013-04-12 07:53:00,38.0,-99.9,-100.00,North,-999,-999.0,-999.0,-999,0.02,,,0.05,,2013-04-12 11:53:00,
2013-04-12 08:03:00,38.0,-99.9,-100.00,North,-999,-999.0,-999.0,-999,0.02,,,0.05,,2013-04-12 12:03:00,
2013-04-12 08:13:00,38.0,-99.9,-100.00,North,-999,-999.0,-999.0,-999,0.02,,,0.05,,2013-04-12 12:13:00,
2013-04-12 08:43:00,39.0,-99.9,-100.00,North,-999,-999.0,-999.0,-999,0.00,,,0.05,,2013-04-12 12:43:00,
2013-04-12 08:54:00,39.0,-99.9,-100.00,North,-999,-999.0,-999.0,-999,0.00,,,0.05,,2013-04-12 12:54:00,
2013-04-12 09:04:00,39.0,-99.9,-100.00,North,-999,-999.0,-999.0,-999,0.00,,,0.05,,2013-04-12 13:04:00,
2013-04-12 09:13:00,39.0,-99.9,-100.00,North,-999,-999.0,-999.0,-999,0.00,,,0.05,,2013-04-12 13:13:00,
2013-04-12 09:33:00,39.0,-99.9,-100.00,North,-999,-999.0,-999.0,-999,0.02,,,0.07,,2013-04-12 13:33:00,
2013-04-12 09:43:00,39.0,-99.9,-100.00,North,-999,-999.0,-999.0,-999,0.02,,,0.07,,2013-04-12 13:43:00,
2013-04-12 09:54:00,39.0,-99.9,-100.00,North,-999,-999.0,-999.0,-999,0.02,,,0.07,,2013-04-12 13:54:00,
2013-04-12 10:04:00,39.0,-99.9,-100.00,North,-999,-999.0,-999.0,-999,0.02,,,0.07,,2013-04-12 14:04:00,
2013-04-12 10:13:00,39.0,-99.9,-100.00,North,-999,-999.0,-999.0,-999,0.02,,,0.07,,2013-04-12 14:13:00,
2013-04-12 10:43:00,39.0,-99.9,-100.00,North,-999,-999.0,-999.0,-999,0.00,,,0.07,,2013-04-12 14:43:00,
2013-04-12 10:54:00,39.0,-99.9,-100.00,North,-999,-999.0,-999.0,-999,0.00,,,0.07,,2013-04-12 14:54:00,
2013-04-12 11:04:00,39.0,-99.9,-100.00,North,-999,-999.0,-999.0,-999,0.00,,,0.07,,2013-04-12 15:04:00,
2013-04-12 11:12:00,39.0,-99.9,-100.00,North,-999,-999.0,-999.0,-999,0.00,,,0.07,,2013-04-12 15:12:00,
2013-04-12 11:43:00,39.0,-99.9,-100.00,North,-999,-999.0,-999.0,-999,0.00,,,0.07,,2013-04-12 15:43:00,
2013-04-12 11:53:00,39.0,-99.9,-100.00,North,-999,-999.0,-999.0,-999,0.00,,,0.07,,2013-04-12 15:53:00,
2013-04-12 12:04:00,39.0,-99.9,-100.00,North,-999,-999.0,-999.0,-999,0.00,,,0.07,,2013-04-12 16:04:00,
2013-04-12 12:14:00,39.0,-99.9,-100.00,North,-999,-999.0,-999.0,-999,0.00,,,0.07,,2013-04-12 16:14:00,
2013-04-12 12:34:00,40.0,-99.9,-100.00,North,-999,-999.0,-999.0,-999,0.00,,,0.07,,2013-04-12 16:34:00,
2013-04-12 12:43:00,40.0,-99.9,-100.00,North,-999,-999.0,-999.0,-999,0.00,,,0.07,,2013-04-12 16:43:00,
2013-04-12 12:54:00,40.0,-99.9,-100.00,North,-999,-999.0,-999.0,-999,0.00,,,0.07,,2013-04-12 16:54:00,
2013-04-12 13:04:00,40.0,-99.9,-100.00,North,-999,-999.0,-999.0,-999,0.00,,,0.07,,2013-04-12 17:04:00,
2013-04-12 13:13:00,40.0,-99.9,-100.00,North,-999,-999.0,-999.0,-999,0.00,,,0.07,,2013-04-12 17:13:00,
2013-04-12 13:48:00,39.0,-99.9,-100.00,North,-999,-999.0,-999.0,-999,0.10,,,0.17,,2013-04-12 17:48:00,
2013-04-12 14:09:00,39.0,-99.9,-100.00,North,-999,-999.0,-999.0,-999,0.10,,,0.17,,2013-04-12 18:09:00,
2013-04-12 14:15:00,39.0,-99.9,-100.00,North,-999,-999.0,-999.0,-999,0.08,,,0.25,,2013-04-12 18:15:00,
2013-04-12 15:33:00,39.0,-99.9,-100.00,North,-999,-999.0,-999.0,-999,0.06,,,0.30,,2013-04-12 19:33:00,
2013-04-12 15:44:00,39.0,-99.9,-100.00,North,-999,-999.0,-999.0,-999,0.06,,,0.30,,2013-04-12 19:44:00,
2013-04-12 15:53:00,39.0,-99.9,-100.00,North,-999,-999.0,-999.0,-999,0.06,,,0.30,,2013-04-12 19:53:00,
2013-04-12 16:02:00,39.0,-99.9,-100.00,North,-999,-999.0,-999.0,-999,0.06,,,0.30,,2013-04-12 20:02:00,
2013-04-12 16:13:00,39.0,-99.9,-100.00,North,-999,-999.0,-999.0,-999,0.06,,,0.30,,2013-04-12 20:13:00,
2013-04-12 16:33:00,39.0,-99.9,-100.00,North,-999,-999.0,-999.0,-999,0.00,,,0.30,,2013-04-12 20:33:00,
2013-04-12 16:43:00,39.0,-99.9,-100.00,North,-999,-999.0,-999.0,-999,0.00,,,0.30,,2013-04-12 20:43:00,
2013-04-12 16:53:00,39.0,-99.9,-100.00,North,-999,-999.0,-999.0,-999,0.00,,,0.30,,2013-04-12 20:53:00,
2013-04-12 17:03:00,39.0,-99.9,-100.00,North,-999,-999.0,-999.0,-999,0.00,,,0.30,,2013-04-12 21:03:00,
2013-04-12 17:12:00,39.0,-99.9,-100.00,North,-999,-999.0,-999.0,-999,0.00,,,0.30,,2013-04-12 21:12:00,
2013-04-12 17:33:00,39.0,-99.9,-100.00,North,-999,-999.0,-999.0,-999,0.00,,,0.30,,2013-04-12 21:33:00,
2013-04-12 17:43:00,39.0,-99.9,-100.00,North,-999,-999.0,-999.0,-999,0.00,,,0.30,,2013-04-12 21:43:00,
2013-04-12 17:53:00,39.0,-99.9,-100.00,North,-999,-999.0,-999.0,-999,0.00,,,0.30,,2013-04-12 21:53:00,
2013-04-12 18:03:00,39.0,-99.9,-100.00,North,-999,-999.0,-999.0,-999,0.00,,,0.30,,2013-04-12 22:03:00,
2013-04-12 18:13:00,39.0,-99.9,-100.00,North,-999,-999.0,-999.0,-999,0.00,,,0.30,,2013-04-12 22:13:00,
2013-04-12 18:33:00,39.0,-99.9,-100.00,North,-999,-999.0,-999.0,-999,0.00,,,0.30,,2013-04-12 22:33:00,
2013-04-12 18:43:00,39.0,-99.9,-100.00,North,-999,-999.0,-999.0,-999,0.00,,,0.30,,2013-04-12 22:43:00,
2013-04-12 18:53:00,39.0,-99.9,-100.00,North,-999,-999.0,-999.0,-999,0.00,,,0.30,,2013-04-12 22:53:00,
2013-04-12 19:04:00,39.0,-99.9,-100.00,North,-999,-999.0,-999.0,-999,0.00,,,0.30,,2013-04-12 23:04:00,
2013-04-12 19:12:00,39.0,-99.9,-100.00,North,-999,-999.0,-999.0,-999,0.00,,,0.30,,2013-04-12 23:12:00,
2013-04-12 19:32:00,39.0,-99.9,-100.00,North,-999,-999.0,-999.0,-999,0.00,,,0.30,,2013-04-12 23:32:00,
2013-04-12 19:43:00,39.0,-99.9,-100.00,North,-999,-999.0,-999.0,-999,0.00,,,0.30,,2013-04-12 23:43:00,
2013-04-12 19:52:00,39.0,-99.9,-100.00,North,-999,-999.0,-999.0,-999,0.00,,,0.30,,2013-04-12 23:52:00,
2013-04-12 20:02:00,39.0,-99.9,-100.00,North,-999,-999.0,-999.0,-999,0.00,,,0.30,,2013-04-13 00:02:00,
2013-04-12 20:12:00,39.0,-99.9,-100.00,North,-999,-999.0,-999.0,-999,0.00,,,0.30,,2013-04-13 00:12:00,
2013-04-12 20:42:00,39.0,-99.9,-100.00,North,-999,-999.0,-999.0,-999,0.00,,,0.30,,2013-04-13 00:42:00,
2013-04-12 20:52:00,39.0,-99.9,-100.00,North,-999,-999.0,-999.0,-999,0.00,,,0.30,,2013-04-13 00:52:00,
2013-04-12 21:03:00,39.0,-99.9,-100.00,North,-999,-999.0,-999.0,-999,0.00,,,0.30,,2013-04-13 01:03:00,
2013-04-12 21:13:00,39.0,-99.9,-100.00,North,-999,-999.0,-999.0,-999,0.00,,,0.30,,2013-04-13 01:13:00,
2013-04-12 21:33:00,39.0,-99.9,-100.00,North,-999,-999.0,-999.0,-999,0.00,,,0.30,,2013-04-13 01:33:00,
2013-04-12 21:43:00,39.0,-99.9,-100.00,North,-999,-999.0,-999.0,-999,0.00,,,0.30,,2013-04-13 01:43:00,
2013-04-12 21:52:00,39.0,-99.9,-100.00,North,-999,-999.0,-999.0,-999,0.00,,,0.30,,2013-04-13 01:52:00,
2013-04-12 22:02:00,39.0,-99.9,-100.00,North,-999,-999.0,-999.0,-999,0.00,,,0.30,,2013-04-13 02:02:00,
2013-04-12 22:12:00,39.0,-99.9,-100.00,North,-999,-999.0,-999.0,-999,0.00,,,0.30,,2013-04-13 02:12:00,
2013-04-12 22:43:00,39.0,-99.9,-100.00,North,-999,-999.0,-999.0,-999,0.01,,,0.31,,2013-04-13 02:43:00,
2013-04-12 22:54:00,39.0,-99.9,-100.00,North,-999,-999.0,-999.0,-999,0.01,,,0.31,,2013-04-13 02:54:00,
2013-04-12 23:03:00,39.0,-99.9,-100.00,North,-999,-999.0,-999.0,-999,0.01,,,0.31,,2013-04-13 03:03:00,
2013-04-12 23:13:00,39.0,-99.9,-100.00,North,-999,-999.0,-999.0,-999,0.01,,,0.31,,2013-04-13 03:13:00,
2013-04-12 23:33:00,39.0,-99.9,-100.00,North,-999,-999.0,-999.0,-999,0.01,,,0.32,,2013-04-13 03:33:00,
2013-04-12 23:43:00,39.0,-99.9,-100.00,North,-999,-999.0,-999.0,-999,0.01,,,0.32,,2013-04-13 03:43:00,
2013-04-12 23:55:00,39.0,-99.9,-100.00,North,-999,-999.0,-999.0,-999,0.01,,,0.32,,2013-04-13 03:55:00,